Simultaneous Nadir Overpasses (SNOs) Predictions

Prediction of SNOs between GOES-15 and METOP-A Satellite Orbit:

Table of predicted SNOs for the next 14.0 days since TLE Epoch: 6/22/2012
Index Date Time (GOES-15) GOES-15 Lat,Lon METOP-A Lat,Lon Distance(km) Time Diff (sec)
1 06/23/2012 18:42:28 -0.08,-135.04 0.47,-137.62 293.06 80
2 06/24/2012 18:19:08 -0.10,-135.07 -0.67,-132.63 278.82 80
3 06/26/2012 06:40:48 0.07,-135.10 -0.39,-137.21 240.68 80
4 06/27/2012 06:17:28 0.10,-135.12 0.74,-132.22 330.76 80
5 06/28/2012 18:38:58 -0.06,-135.17 0.30,-136.77 182.78 80
6 06/29/2012 18:15:39 -0.09,-135.19 -0.83,-131.78 388.15 80
7 07/01/2012 06:37:18 0.05,-135.20 -0.21,-136.37 132.72 80
8 07/02/2012 06:13:59 0.08,-135.22 0.93,-131.38 437.67 80
9 07/03/2012 18:35:29 -0.05,-135.25 0.11,-135.93 77.24 80
10 07/04/2012 18:12:10 -0.07,-135.27 -1.03,-130.94 492.97 80
11 07/06/2012 06:33:49 0.04,-135.28 0.00,-135.53 28.44 80




NCC Satellite Simultaneous Nadir Overpasses (SNOs) Prediction Service
